Location: Unspecified
(0.0000°N, 0.0000°E)
Time: 08:25:11
(UTC+00:00)

SPEKTR R - Visible Passes

Search period start: 29 January 2022 00:00
Search period end: 08 February 2022 00:00
Orbit: 35130 x 343365 km, 55.2° (Epoch: 26 January)

Date Brightness Start Highest point End Pass type
(mag) Time Alt. Az. Time Alt. Az. Time Alt. Az.
29 Jan 13.6 18:06:19 10° ENE 23:24:41 77° N 04:41:46 10° WNW visible
30 Jan 13.7 18:18:42 10° E 23:37:17 83° N 04:55:14 10° W visible
31 Jan 13.7 18:30:36 10° E 23:49:13 89° N 05:07:45 10° W visible
01 Feb 13.5 18:44:22 10° E 00:02:42 84° S 05:21:43 10° W daylight
02 Feb 13.1 19:03:57 10° ESE 00:21:25 76° S 05:41:25 10° WSW daylight
03 Feb 12.2 19:43:32 10° ESE 00:58:08 61° S 06:26:36 10° SW visible
05 Feb 11.3 14:37:36 10° NE 20:50:43 42° N 01:58:52 10° NW visible
06 Feb 12.9 16:44:36 10° ENE 22:04:01 61° N 03:16:58 10° WNW visible
